Regional Weather Roundup
Issued by NWS

Home | Current Version | Previous Version | Graphics & Text | Print | Product List | Glossary On
Versions: 1 2 3 4 5 6 7 8 9 10 11 12 13 14 15 16 17 18 19 20 21 22 23 24 25 26 27
000
ASUS45 KBOU 301507
RWRCO

WEATHER ROUNDUP FOR COLORADO
NATIONAL WEATHER SERVICE DENVER/BOULDER CO
900 AM MDT MON MAY 30 2016

NOTE: "FAIR" INDICATES FEW OR NO CLOUDS BELOW 12000 FEET WITH NO
SIGNIFICANT WEATHER AND/OR OBSTRUCTIONS TO VISIBILITY.

COZ001>005-013-030-031-301600-
...NORTHWEST COLORADO...

CITY           SKY/WX    TMP DP  RH WIND       PRES   REMARKS
CRAIG          FAIR      55  41  59 CALM      30.18S
HAYDEN         FAIR      50  37  62 SW6       30.19R
MEEKER         FAIR      51  38  60 CALM      30.17S
MOUNT WERNER   NOT AVBL
STEAMBOAT SPGS FAIR      51  37  59 CALM      30.18S
WALDEN         NOT AVBL
$$

COZ006>008-011-301600-
...WEST CENTRAL VALLEYS...

CITY           SKY/WX    TMP DP  RH WIND       PRES   REMARKS
GRAND JUNCTION FAIR      62  38  40 S5        30.08F
MONTROSE       FAIR      60  32  34 VRB3      30.13S
EAGLE          SUNNY     52  36  54 CALM      30.20F
RIFLE          FAIR      57  38  48 CALM      30.12F
DELTA          FAIR      61  36  38 CALM      30.11S
NUCLA          FAIR      59  30  33 CALM      30.17S
$$

COZ017>023-064>068-301600-
...SOUTHWEST COLORADO...

CITY           SKY/WX    TMP DP  RH WIND       PRES   REMARKS
DURANGO        FAIR      58  32  37 VRB3      30.18S
CORTEZ         FAIR      60  32  34 CALM      30.13S
PAGOSA SPRINGS FAIR      59  28  31 CALM      30.25S
TELLURIDE      PTSUNNY   56  26  30 CALM      30.30S
WOLF CREEK PAS FAIR      43  19  39 SW9       30.48S
$$

COZ009-010-012-014-032>034-037-058>063-301600-
...CENTRAL COLORADO...

CITY           SKY/WX    TMP DP  RH WIND       PRES   REMARKS
ASPEN          FAIR      53  32  44 N9        30.18S
BUENA VISTA    FAIR      52  28  39 CALM      30.24F
COPPER MTN     NOT AVBL
BERTHOUD PASS  FAIR      37  28  70 NW7       30.43S
COTTONWOOD PAS FAIR      54  28  37 E5        30.32F
GUNNISON       FAIR      46  30  53 CALM      30.28F
KREMMLING      FAIR      50  36  57 CALM      30.23F
LEADVILLE      FAIR      47  26  44 S6        30.30F
MONARCH PASS   FAIR      41  23  48 SW15      30.54S
SALIDA         FAIR      54  30  40 CALM      30.30F
SUNLIGHT       FAIR      48  28  46 CALM      30.38R
WILKERSON PASS FAIR      45  23  42 SW5       30.42S
$$

COZ069>075-301600-
...SAN LUIS VALLEY/SANGRE DE CRISTO MOUNTAINS...

CITY           SKY/WX    TMP DP  RH WIND       PRES   REMARKS
ALAMOSA        FAIR      53  37  54 SE3       30.23F
LA VETA PASS   FAIR      50  30  46 SW6       30.35S
SAGUACHE       FAIR      54  32  43 SE3       30.27S
$$

COZ035-036-038>040-301600-
...NORTHERN COLORADO FRONT RANGE...

CITY           SKY/WX    TMP DP  RH WIND       PRES   REMARKS
DENVER INTL AP FAIR      66  42  41 W9        30.05S
DMNS CITY PARK   N/A     67  37  33 E8        30.04F
AURORA         MOSUNNY   66  42  42 SW9       30.06S
FRONT RANGE AP MOSUNNY   66  43  42 SW12      30.06S
ERIE MUNI ARPT FAIR      63  44  49 CALM      30.04F
BOULDER MUN AP FAIR      61  37  41 CALM      30.04F
CENTENNIAL     FAIR      66  36  32 SW8       30.07F
BROOMFIELD     MOSUNNY   61  41  48 CALM      30.07S
FORT COLLINS   FAIR      37 N/A N/A CALM      30.04S
LONGMONT       FAIR      64  45  51 CALM      30.04F
$$

COZ041-046-047-076>085-087-088-301600-
...PIKES PEAK/PALMER DIVIDE AND SOUTHERN FOOTHILLS...

CITY           SKY/WX    TMP DP  RH WIND       PRES   REMARKS
COLO. SPRINGS  FAIR      62  40  44 CALM      30.12F
A. F. ACADEMY  FAIR      63  39  42 S3        30.11F
SCHRIEVER AFB  NOT AVBL
ELLICOTT       NOT AVBL
FALCON         FAIR      63  38  40 SW3       30.15S
FORT CARSON    FAIR      61  43  51 S1        30.09F
LIMON          FAIR      60  50  69 VRB5      30.07F
MONUMENT HILL  FAIR      63  37  39 W3        30.16S
TRINIDAD       FAIR      65  44  46 SW7       30.10F
$$

COZ042>045-048>051-090-091-301600-
...NORTHEAST COLORADO...

CITY           SKY/WX    TMP DP  RH WIND       PRES   REMARKS
GREELEY ARPT   FAIR      61  46  59 CALM      30.04S
AKRON          FAIR      65  48  54 W10       30.03S
BURLINGTON     FAIR      65  51  60 S7        30.04R
WRAY           FAIR      68  52  56 SW7       30.01S
STERLING       FAIR      63  52  67 SW5       30.00F
HOLYOKE        FAIR      70  52  52 SW9       30.01S
FORT MORGAN    FAIR      61  48  62 CALM      30.04S
$$

COZ086-089-092>099-301600-
...SOUTHEAST COLORADO...

CITY           SKY/WX    TMP DP  RH WIND       PRES   REMARKS
PUEBLO         FAIR      63  47  55 W5        30.06F
LA JUNTA       FAIR      61  49  64 W7        30.04S
LAMAR          FAIR      67  52  58 N6        29.99F
SPRINGFIELD      N/A     67  52  58 SW24G33   30.04F
$$




USA.gov is the U.S. government's official web portal to all federal, state and local government web resources and services.